Weather reports worldwide

Advertisment
Frankfurt/Main, Germany (10637): temperature & dewpoint: 10.07.2018 18:00:00 - 16.07.2018 18:00:00 (CEST)Frankfurt/Main, Germany (10637): temperature 5cm & temperature -5cm: 10.07.2018 18:00:00 - 16.07.2018 18:00:00 (CEST)Frankfurt/Main, Germany (10637): temperature -20cm & temperature -100cm: 10.07.2018 18:00:00 - 16.07.2018 18:00:00 (CEST)Frankfurt/Main, Germany (10637): wind speed & gusts: 10.07.2018 18:00:00 - 16.07.2018 18:00:00 (CEST)Frankfurt/Main, Germany (10637): wind direction: 10.07.2018 18:00:00 - 16.07.2018 18:00:00 (CEST)Frankfurt/Main, Germany (10637): reduced air pressure: 10.07.2018 18:00:00 - 16.07.2018 18:00:00 (CEST)Frankfurt/Main, Germany (10637): visibility: 10.07.2018 18:00:00 - 16.07.2018 18:00:00 (CEST)Frankfurt/Main, Germany (10637): sunshine duration: 10.07.2018 18:00:00 - 16.07.2018 18:00:00 (CEST)Frankfurt/Main, Germany (10637): precipitation: 10.07.2018 18:00:00 - 16.07.2018 18:00:00 (CEST)
Date & Time tt [°C] td [°C] tt 5cm [°C] tt -5cm [°C] tt -20cm [°C] tt -100cm [°C] ff [km/h] ff [kn] fx [km/h] fx [kn] dd ppp [hPa] vv [km] sd [min] rr [mm]
16.07.2018 18:00:00 28,0 10,4 29,8 32,3 28,8 22,7 5 3 15 8 E 1010,5 60 0 0,0
16.07.2018 17:00:00 28,6 9,4 31,0 34,0 28,7 22,7 9 5 18 10 S 1010,8 60 10 0,0
16.07.2018 16:00:00 27,9 9,4 30,9 37,1 28,1 22,7 9 5 18 10 SSW 1011,2 60 36 0,0
16.07.2018 15:00:00 28,7 9,8 35,7 36,7 27,3 22,7 9 5 28 15 - 1011,7 10 60 0,0
16.07.2018 14:00:00 27,6 9,9 33,7 35,0 26,4 22,7 8 4 23 13 - 1012,6 10 60 0,0
16.07.2018 13:00:00 26,8 10,8 33,5 32,7 25,6 22,7 8 4 30 16 WNW 1012,9 60 60 0,0
16.07.2018 12:00:00 25,6 11,6 30,4 29,5 25,1 22,7 11 6 17 9 SE 1013,5 10 50 0,0
16.07.2018 11:00:00 22,5 14,0 24,8 26,6 24,8 22,7 8 4 22 12 SE 1014,2 40 0 -
16.07.2018 10:00:00 21,5 14,2 24,0 26,3 24,6 22,7 5 3 17 9 SW 1014,3 35 32 0,0
16.07.2018 09:00:00 20,5 14,1 22,8 24,4 24,5 22,6 4 2 18 10 SSW 1014,3 35 33 0,0
16.07.2018 08:00:00 19,9 13,6 20,4 23,0 24,6 22,6 7 4 15 8 SSE 1014,1 35 36 0,0
16.07.2018 07:00:00 17,6 13,7 17,6 22,2 24,8 22,6 4 2 13 7 E 1014,4 35 0 0,0
16.07.2018 06:00:00 16,8 13,3 16,0 22,4 25,0 22,6 3 2 9 5 SE 1014,5 50 0 0,0
16.07.2018 05:00:00 17,5 13,5 16,9 22,6 25,3 22,6 4 2 13 7 - 1014,7 10 0 0,0
16.07.2018 04:00:00 17,3 12,9 16,2 22,9 25,6 22,6 5 3 9 5 WSW 1014,6 10 0 0,0
16.07.2018 03:00:00 18,2 12,9 17,1 23,2 25,9 22,6 5 3 13 7 SSW 1014,6 10 0 0,0
16.07.2018 02:00:00 18,2 13,4 17,5 23,8 26,2 22,5 8 4 16 9 S 1015,0 50 0 0,0
16.07.2018 01:00:00 18,9 13,0 18,5 24,4 26,5 22,5 8 4 11 6 S 1014,6 50 0 0,0
16.07.2018 00:00:00 20,2 12,6 19,5 24,8 26,9 22,5 8 4 26 14 W 1014,4 50 0 0,0
15.07.2018 23:00:00 20,4 12,9 19,7 25,3 27,3 22,5 16 8 26 14 W 1014,5 50 0 0,0
15.07.2018 22:00:00 20,6 13,1 20,0 26,1 27,7 22,5 13 7 26 14 W 1014,4 35 0 0,0
15.07.2018 21:00:00 21,5 13,2 20,8 27,2 28,2 22,5 18 10 41 22 SSW 1014,1 10 0 0,0
15.07.2018 20:00:00 22,5 14,4 20,3 29,4 28,5 22,5 8 4 48 26 S 1014,3 10 0 0,0
15.07.2018 19:00:00 26,3 10,6 26,6 31,3 28,6 22,5 16 9 23 13 S 1013,3 60 0 0,0
15.07.2018 18:00:00 28,0 10,1 29,8 32,2 28,7 22,5 7 4 15 8 ESE 1013,0 60 10 0,0
15.07.2018 17:00:00 28,5 7,7 29,5 33,3 28,6 22,5 9 5 29 16 ENE 1013,1 60 0 0,0
15.07.2018 16:00:00 28,5 7,9 30,3 36,3 28,1 22,5 19 10 29 16 NNE 1013,3 50 37 0,0
15.07.2018 15:00:00 29,3 9,6 37,6 35,3 27,5 22,5 13 7 29 16 N 1013,8 55 40 0,0
15.07.2018 14:00:00 28,4 11,1 37,8 33,6 27,0 22,4 11 6 36 20 - 1014,4 10 25 0,0
15.07.2018 13:00:00 26,6 11,8 32,0 33,0 26,4 22,4 5 3 24 13 - 1015,4 10 8 0,0
15.07.2018 12:00:00 26,2 11,7 33,0 32,3 25,7 22,4 9 5 29 16 - 1016,0 10 55 0,0
15.07.2018 11:00:00 25,5 11,6 32,9 29,5 25,2 22,4 14 8 29 15 NNE 1016,1 50 60 0,0
15.07.2018 10:00:00 23,4 12,0 27,6 26,8 24,9 22,4 11 6 16 9 NNE 1016,3 45 60 0,0
15.07.2018 09:00:00 22,0 12,2 25,7 24,7 24,8 22,4 11 6 21 11 NE 1016,6 45 60 0,0
15.07.2018 08:00:00 20,6 12,2 21,9 23,2 25,0 22,4 15 8 24 13 NNE 1016,5 45 54 0,0
15.07.2018 07:00:00 19,9 12,4 19,5 22,6 25,2 22,3 14 8 22 12 NE 1016,2 45 34 0,0
15.07.2018 06:00:00 19,4 12,5 18,1 22,8 25,5 22,3 9 5 18 10 NNE 1016,4 10 0 0,0
15.07.2018 05:00:00 20,0 12,7 18,7 23,3 25,9 22,3 11 6 22 12 NE 1016,4 10 0 0,0
15.07.2018 04:00:00 20,4 12,6 19,2 23,8 26,2 22,3 15 8 22 12 NNE 1016,6 10 0 0,0
15.07.2018 03:00:00 21,0 12,7 19,9 24,5 26,6 22,3 14 8 22 12 NE 1016,7 40 0 0,0
15.07.2018 02:00:00 22,0 12,8 20,9 25,1 26,9 22,3 16 9 29 16 NNE 1017,0 10 0 0,0
15.07.2018 01:00:00 23,1 12,8 22,0 25,9 27,3 22,2 18 10 34 18 NNE 1016,9 45 0 0,0
15.07.2018 00:00:00 23,7 12,7 22,9 26,6 27,7 22,2 24 13 34 18 NNE 1016,7 10 0 0,0
14.07.2018 23:00:00 24,9 12,0 23,7 27,4 28,1 22,2 21 11 34 18 N 1016,5 10 0 0,0
14.07.2018 22:00:00 25,4 10,5 23,9 28,7 28,5 22,2 12 7 28 15 NNW 1016,1 55 0 0,0
14.07.2018 21:00:00 26,3 9,7 25,7 30,2 28,9 22,2 9 5 22 12 NNW 1015,6 10 0 0,0
14.07.2018 20:00:00 28,2 8,4 27,5 32,5 29,0 22,2 8 4 25 14 WNW 1015,5 10 28 0,0
14.07.2018 19:00:00 29,5 8,2 32,8 33,8 29,0 22,2 6 3 11 6 SSW 1015,4 70 31 0,0
14.07.2018 18:00:00 28,8 7,9 30,6 35,0 28,9 22,2 5 3 16 9 WSW 1015,8 10 20 0,0
14.07.2018 17:00:00 29,3 7,8 34,3 36,2 28,6 22,2 9 5 21 11 NNE 1016,2 65 22 0,0
14.07.2018 16:00:00 29,5 8,1 36,5 37,6 27,9 22,2 11 6 24 13 N 1016,6 60 50 0,0
14.07.2018 15:00:00 28,9 7,4 37,7 36,6 27,1 22,2 11 6 26 14 - 1017,0 10 60 0,0
14.07.2018 14:00:00 28,1 8,5 33,2 35,6 26,3 22,2 13 7 25 14 - 1017,8 10 50 0,0
14.07.2018 13:00:00 27,5 8,8 34,8 34,1 25,5 22,2 14 7 29 16 NNE 1018,4 50 60 0,0
14.07.2018 12:00:00 27,1 9,5 33,8 31,7 24,7 22,2 10 5 26 14 NNE 1018,8 50 60 0,0
14.07.2018 11:00:00 25,7 11,3 32,1 29,0 24,1 22,2 10 5 26 14 NNE 1019,4 50 60 0,0
14.07.2018 10:00:00 24,1 11,2 29,3 26,3 23,7 22,2 13 7 22 12 NNE 1019,6 10 60 0,0
14.07.2018 09:00:00 22,3 11,5 25,6 23,8 23,6 22,2 10 5 18 10 NNE 1019,6 50 51 0,0
14.07.2018 08:00:00 20,1 11,8 20,2 22,3 23,7 22,2 8 4 11 6 NE 1019,5 50 0 0,0
14.07.2018 07:00:00 19,9 11,8 19,5 21,9 23,8 22,2 5 3 8 4 ENE 1019,3 50 4 0,0
14.07.2018 06:00:00 19,6 11,7 19,0 21,9 24,0 22,2 5 3 9 5 NE 1019,3 50 0 0,0
14.07.2018 05:00:00 19,4 11,8 18,5 22,0 24,2 22,1 6 3 8 4 NE 1019,2 50 0 0,0
14.07.2018 04:00:00 20,1 11,8 19,1 22,3 24,5 22,1 6 4 8 4 NE 1019,1 40 0 0,0
14.07.2018 03:00:00 19,9 11,8 19,0 22,3 24,8 22,1 6 3 9 5 NE 1019,2 50 0 0,0
14.07.2018 02:00:00 19,8 11,7 17,8 22,7 25,1 22,1 7 4 11 6 NE 1019,3 50 0 0,0
14.07.2018 01:00:00 20,8 12,3 19,2 23,2 25,5 22,1 16 9 11 6 NNE 1019,3 10 0 0,0
14.07.2018 00:00:00 21,7 11,9 19,7 23,9 25,9 22,1 9 5 18 10 NNE 1019,2 10 0 0,0
13.07.2018 23:00:00 21,1 12,3 18,5 24,9 26,3 22,1 6 3 14 7 NNE 1018,9 60 0 0,0
13.07.2018 22:00:00 21,3 12,0 19,3 26,2 26,6 22,1 5 3 11 6 NNE 1018,4 60 0 0,0
13.07.2018 21:00:00 24,6 11,6 22,8 27,9 26,8 22,1 7 4 18 10 N 1017,9 60 49 0,0
13.07.2018 20:00:00 25,9 10,5 26,3 28,8 26,9 22,1 10 5 22 12 NNE 1017,7 60 6 0,0
13.07.2018 19:00:00 27,0 10,1 29,9 29,9 27,0 22,1 16 9 36 20 NNE 1017,8 10 52 0,0
13.07.2018 18:00:00 26,6 12,2 28,9 29,5 27,2 22,1 16 8 25 14 NE 1018,1 50 22 0,2
13.07.2018 17:00:00 27,0 10,2 27,9 32,2 27,0 22,1 16 9 34 18 N 1018,0 10 8 0,0
13.07.2018 16:00:00 27,5 10,2 31,9 32,9 26,7 22,1 7 4 21 11 ENE 1018,2 50 23 0,0
13.07.2018 15:00:00 27,8 10,3 33,3 32,2 26,3 22,1 5 3 18 10 N 1018,4 50 6 0,0
13.07.2018 14:00:00 25,9 10,8 29,2 34,1 25,7 22,1 4 2 23 13 NE 1018,9 45 29 0,0
13.07.2018 13:00:00 26,1 11,2 35,0 33,7 24,7 22,1 9 5 22 12 N 1019,4 45 58 0,0
13.07.2018 12:00:00 25,0 11,3 30,1 31,0 23,9 22,1 14 8 22 12 NE 1019,5 40 60 0,0
13.07.2018 11:00:00 23,9 12,1 29,4 28,1 23,3 22,1 8 4 18 10 - 1019,8 10 60 0,0
13.07.2018 10:00:00 22,3 11,4 28,4 25,4 22,9 22,1 8 5 21 11 NNE 1019,9 35 60 0,0
13.07.2018 09:00:00 20,8 13,3 23,3 22,7 22,7 22,1 6 3 9 5 NNE 1019,9 30 52 0,0
13.07.2018 08:00:00 19,4 14,1 20,7 21,0 22,8 22,1 5 3 10 5 ESE 1019,8 30 53 0,0
13.07.2018 07:00:00 15,9 13,2 15,7 20,2 23,0 22,1 5 3 5 3 SW 1019,9 10 16 0,0
13.07.2018 06:00:00 14,4 12,8 12,7 20,4 23,3 22,1 3 2 5 3 ENE 1019,9 30 0 0,0
13.07.2018 05:00:00 15,4 13,3 14,7 20,8 23,6 22,1 2 1 8 4 - 1019,5 10 0 0,0
13.07.2018 04:00:00 15,6 13,4 14,2 21,2 23,9 22,1 2 1 4 2 E 1019,2 35 0 0,0
13.07.2018 03:00:00 16,4 13,7 14,9 21,8 24,2 22,1 2 1 8 4 ESE 1019,0 35 0 0,0
13.07.2018 02:00:00 16,9 13,8 15,6 22,3 24,5 22,2 6 3 8 4 NE 1018,8 40 0 0,0
13.07.2018 01:00:00 17,9 14,0 15,7 23,1 24,8 22,2 5 3 9 5 NE 1019,0 40 0 0,0
13.07.2018 00:00:00 20,0 14,2 18,8 24,0 25,2 22,2 3 2 13 7 NE 1018,9 40 0 0,0
12.07.2018 23:00:00 20,5 14,0 19,9 24,7 25,5 22,2 4 2 21 11 E 1018,7 40 0 0,0
12.07.2018 22:00:00 21,8 13,4 21,3 25,9 25,8 22,2 16 9 41 22 NNE 1018,1 10 0 0,0
12.07.2018 21:00:00 23,9 11,2 22,5 27,7 26,0 22,2 11 6 26 14 WNW 1017,1 10 46 0,0
12.07.2018 20:00:00 25,7 10,4 27,1 29,2 26,0 22,2 8 4 24 13 W 1016,8 60 45 0,0
12.07.2018 19:00:00 25,3 10,8 27,4 30,9 25,8 22,3 5 3 18 10 - 1016,8 10 19 0,0
12.07.2018 18:00:00 25,7 9,9 33,0 32,2 25,3 22,3 9 5 21 11 SSW 1016,8 60 58 0,0
12.07.2018 17:00:00 24,8 10,4 30,1 31,7 24,8 22,3 9 5 18 10 NW 1017,1 10 42 0,0
12.07.2018 16:00:00 24,7 10,9 31,8 30,6 24,2 22,3 8 4 22 12 ESE 1017,5 10 31 0,0
12.07.2018 15:00:00 23,5 11,2 28,4 29,7 23,6 22,3 8 4 35 19 NNW 1017,8 60 18 0,0
12.07.2018 14:00:00 22,7 10,8 28,5 28,8 22,9 22,4 8 4 21 11 NE 1017,8 50 20 0,0
12.07.2018 13:00:00 23,4 10,8 34,3 27,7 22,2 22,4 5 3 21 11 N 1017,9 50 42 0,0
12.07.2018 12:00:00 20,6 11,9 27,4 23,8 21,8 22,4 9 5 15 8 NNW 1018,0 45 11 0,0
12.07.2018 11:00:00 19,0 12,9 22,9 22,4 21,5 22,4 13 7 18 10 ENE 1018,1 10 4 0,0
12.07.2018 10:00:00 18,3 13,3 20,2 21,0 21,4 22,4 8 4 13 7 E 1018,0 30 1 0,0
12.07.2018 09:00:00 17,8 13,7 19,1 20,1 21,3 22,5 4 2 11 6 - 1017,6 10 1 0,0
12.07.2018 08:00:00 16,1 14,4 16,3 19,0 21,3 22,5 6 3 11 6 N 1017,2 11 2 0,0
12.07.2018 07:00:00 14,6 13,6 14,7 18,3 21,4 22,5 2 1 5 3 SW 1017,0 8 0 0,0
12.07.2018 06:00:00 13,1 12,4 12,1 17,9 21,7 22,5 3 1 5 3 ESE 1017,0 6 0 0,0
12.07.2018 05:00:00 13,5 12,8 11,9 18,2 21,9 22,5 4 2 5 3 - 1016,6 5 0 0,0
12.07.2018 04:00:00 13,5 12,4 12,3 18,9 22,2 22,5 4 2 11 6 - 1016,3 6 0 0,0
12.07.2018 03:00:00 14,8 13,6 14,5 19,4 22,4 22,5 9 5 11 6 SSW 1016,2 8 0 0,0
12.07.2018 02:00:00 15,0 13,8 14,6 19,6 22,6 22,6 8 4 15 8 S 1016,4 10 0 0,0
12.07.2018 01:00:00 15,1 13,6 14,7 19,9 22,8 22,6 5 3 12 7 S 1016,6 12 0 0,0
12.07.2018 00:00:00 15,3 13,4 14,8 20,3 23,1 22,6 7 4 21 11 SSW 1016,6 15 0 0,0
11.07.2018 23:00:00 15,9 12,6 14,9 20,7 23,4 22,6 8 4 22 12 SSE 1016,6 10 0 0,1
11.07.2018 22:00:00 16,0 13,4 15,3 21,3 23,6 22,6 13 7 22 12 WSW 1016,5 20 0 0,1
11.07.2018 21:00:00 15,8 13,5 15,6 22,1 23,9 22,6 4 2 8 4 E 1016,5 25 0 0,1
11.07.2018 20:00:00 16,8 14,1 16,2 23,1 24,0 22,7 3 1 13 7 WNW 1016,3 30 0 0,3
11.07.2018 19:00:00 18,7 11,5 16,9 23,9 24,2 22,7 11 6 18 10 NNW 1016,3 30 0 0,1
11.07.2018 18:00:00 19,4 9,9 19,5 24,6 24,2 22,7 13 7 26 14 WNW 1016,2 40 0 0,0
11.07.2018 17:00:00 19,4 10,0 20,0 25,6 24,1 22,7 19 10 29 16 WNW 1016,3 50 0 0,0
11.07.2018 16:00:00 20,3 8,4 23,0 26,7 23,9 22,7 9 5 22 12 NNW 1016,1 50 13 0,0
11.07.2018 15:00:00 19,8 9,1 21,7 25,9 23,7 22,7 13 7 29 16 N 1016,2 50 3 0,0
11.07.2018 14:00:00 19,7 8,9 22,5 25,4 23,4 22,7 8 4 20 11 - 1016,2 10 0 0,0
11.07.2018 13:00:00 18,9 9,3 21,7 25,7 23,0 22,8 4 2 26 14 - 1016,3 10 1 0,0
11.07.2018 12:00:00 18,6 8,8 24,2 24,6 22,6 22,8 12 6 23 12 NNE 1016,3 45 22 0,0
11.07.2018 11:00:00 17,0 10,0 18,7 22,4 22,4 22,8 15 8 22 12 N 1016,5 40 9 0,0
11.07.2018 10:00:00 16,3 9,9 17,9 21,0 22,3 22,8 11 6 16 9 N 1016,3 10 1 0,0
11.07.2018 09:00:00 15,5 9,9 16,4 19,7 22,3 22,8 6 3 13 7 NNW 1016,4 28 17 0,0
11.07.2018 08:00:00 14,2 10,2 14,5 18,6 22,5 22,8 8 4 18 10 NW 1016,1 20 6 0,0
11.07.2018 07:00:00 12,9 9,9 12,4 18,0 22,8 22,8 10 6 23 13 NW 1015,7 18 0 0,0
11.07.2018 06:00:00 12,3 9,8 11,4 18,1 23,2 22,8 10 5 27 15 NW 1015,6 18 0 0,0
11.07.2018 05:00:00 12,5 9,9 11,3 18,5 23,6 22,8 12 7 21 11 NNW 1015,3 20 0 0,0
11.07.2018 04:00:00 12,9 10,1 11,9 19,1 24,1 22,8 16 8 22 12 NW 1015,3 30 0 0,0
11.07.2018 03:00:00 13,6 10,4 12,5 19,9 24,5 22,8 16 9 22 12 WNW 1015,1 30 0 0,0
11.07.2018 02:00:00 14,4 10,9 13,6 20,6 25,0 22,8 17 9 28 15 NW 1015,2 30 0 0,0
11.07.2018 01:00:00 15,1 11,5 13,7 21,7 25,4 22,8 17 9 25 13 WNW 1015,4 30 0 0,0
11.07.2018 00:00:00 14,9 12,5 14,3 22,4 25,8 22,8 8 4 23 12 WSW 1015,2 10 0 0,3
10.07.2018 23:00:00 15,3 12,3 14,6 23,5 26,3 22,8 16 8 40 21 SW 1015,2 18 0 0,1
10.07.2018 22:00:00 16,6 11,2 14,7 25,3 26,7 22,8 24 13 38 20 WSW 1015,1 15 0 0,2
10.07.2018 21:00:00 18,2 9,6 18,2 26,5 27,0 22,8 9 5 24 13 W 1014,9 10 19 0,0
10.07.2018 20:00:00 18,5 9,3 18,7 28,0 27,2 22,8 20 11 31 17 NNW 1015,2 35 9 0,0
10.07.2018 19:00:00 20,1 7,3 21,6 29,8 27,2 22,8 21 11 30 16 WNW 1015,2 50 18 0,0
10.07.2018 18:00:00 20,6 7,2 23,1 30,5 27,1 22,8 18 10 40 22 WNW 1015,4 55 24 0,0

tt = temperature
td = dewpoint
tt 5cm = temperature 5cm
tt -5cm = temperature -5cm
tt -20cm = temperature -20cm
tt -100cm = temperature -100cm
ff = wind speed
fx = gusts
dd = wind direction
ppp = reduced air pressure
vv = visibility
sd = sunshine duration
rr = precipitation

Next stations